Погода в Берлевоге

Норвегия     70°51′35″N   29°05′26″E
темп.,
°C
ветер,
м/с
пор.,
м/с
влажн.,
%
обл.,
%
осадки,
мм/ч
давл.,
гПа
погр.,
м
17 августа, ср
ср1723:00+19ююз8146973 0.0 1010277
02:00+17ю7127977 0.0 1009198
05:00+17ю6138467 0.0 1007269
08:00+20ююз111972100 0.0 1006598
11:00+23ююз13196224 0.0 10051010
14:00+24ююз1117570 0.0 10051285
17:00+22ююз1319645 0.2 10041101
20:00+11з81294100 2.3 1009464
18 августа, чт
чт1823:00+9сз8995100 0.9 1010566
02:00+8сз7792100 2.5 1011511
05:00+8сз81093100 6.8 1012652
08:00+8сз81090100 8.8 1014650
11:00+9зсз81078100 0.5 1016925
14:00+10зсз8107096 0.6 10191013
17:00+10зсз810638 0.0 10221030
20:00+9з467197 0.0 1023164
19 августа, пт
пт1923:00+7ююз447242 0.0 102561
02:00+7ю45741 0.0 102582
05:00+7ю5777100 0.0 1024166
08:00+10ю7116595 0.0 1023586
11:00+11ю9116583 0.0 1021565
14:00+14ююз81161100 0.0 1019546
17:00+15ююз81363100 0.0 1018445
20:00+15ююз8157110 0.0 1018374
20 августа, сб
сб2023:00+13ююз4787100 0.0 101889
02:00+14ююз4589100 0.0 101765
05:00+14ю249336 0.0 101762
08:00+17ююз588241 0.0 1016330
11:00+19ююз8117310 0.0 1015422
14:00+22ююз9126787 0.0 1014670
17:00+22ююз914665 0.0 1013795
20:00+21ю917674 0.0 1013459
21 августа, вс
вс2123:00+20ююз11186878 0.0 1012475
02:00+18ююз9177325 0.0 1012350
05:00+17ю7137717 0.0 1011316
08:00+19ююз915681 0.0 1010667
11:00+20ююз1014644 0.0 1009789
14:00+20ююз10166196 0.0 1008966
17:00+19ююз10157095 0.0 1008931
20:00+17юз121879100 0.0 1009600